N402NE KOMA-KHOU

Flight info

Callsign N402NE
Flight time N/A
Altitude 38000
Route PWE KAKEL PER/N0517F390 ZEMMA CVE NNEAL KIDDZ5
Aircraft C750/M-SBDE3FGHRWXY/S

Departure

Time 2026-04-26 00:29
Airport Eppley Airfield (KOMA)

Arrival

Time N/A
Airport William P. Hobby Airport (KHOU)
Time Latitude Longitude Altitude Speed Heading
2026-04-26 00:21 41.30256 -95.88581 981 ft 0 kts 240°
2026-04-26 00:25 41.30253 -95.88588 985 ft 3 kts 240°
2026-04-26 00:25 41.30253 -95.88626 981 ft 6 kts 296°
2026-04-26 00:25 41.30299 -95.88683 989 ft 11 kts 324°
2026-04-26 00:26 41.30349 -95.88746 981 ft 9 kts 280°
2026-04-26 00:26 41.30311 -95.88783 984 ft 9 kts 158°
2026-04-26 00:26 41.30234 -95.88711 986 ft 18 kts 144°
2026-04-26 00:26 41.30126 -95.88608 983 ft 19 kts 144°
2026-04-26 00:27 41.30025 -95.88512 981 ft 17 kts 144°
2026-04-26 00:27 41.29932 -95.88423 986 ft 16 kts 144°
2026-04-26 00:27 41.29846 -95.88341 983 ft 15 kts 144°
2026-04-26 00:27 41.29766 -95.88266 981 ft 13 kts 144°
2026-04-26 00:28 41.29682 -95.88186 983 ft 17 kts 144°
2026-04-26 00:28 41.29588 -95.88098 983 ft 14 kts 153°
2026-04-26 00:28 41.29520 -95.88151 981 ft 12 kts 234°
2026-04-26 00:28 41.29477 -95.88241 982 ft 11 kts 261°
2026-04-26 00:29 41.29556 -95.88335 983 ft 36 kts 325°
2026-04-26 00:29 41.30068 -95.88818 985 ft 135 kts 325°
2026-04-26 00:29 41.30910 -95.89598 1374 ft 151 kts 329°
2026-04-26 00:29 41.31809 -95.90379 1950 ft 160 kts 337°
2026-04-26 00:30 41.32991 -95.90347 2070 ft 192 kts 28°
2026-04-26 00:30 41.33957 -95.88979 2288 ft 220 kts 60°
2026-04-26 00:30 41.34740 -95.87116 2807 ft 241 kts 71°
2026-04-26 00:30 41.34762 -95.84887 3487 ft 246 kts 110°
2026-04-26 00:31 41.33685 -95.83160 4468 ft 251 kts 146°
2026-04-26 00:31 41.31994 -95.82608 5435 ft 254 kts 176°
2026-04-26 00:31 41.30820 -95.82653 6096 ft 256 kts 182°
2026-04-26 00:31 41.28425 -95.82797 7356 ft 260 kts 182°
2026-04-26 00:32 41.26612 -95.82875 8395 ft 262 kts 182°
2026-04-26 00:32 41.25401 -95.82916 9113 ft 263 kts 182°
2026-04-26 00:32 41.21748 -95.83658 10562 ft 279 kts 200°
2026-04-26 00:33 41.19839 -95.84592 10716 ft 306 kts 201°
2026-04-26 00:33 41.17725 -95.85496 10788 ft 332 kts 197°
2026-04-26 00:33 41.15471 -95.86238 11523 ft 333 kts 195°
2026-04-26 00:33 41.13215 -95.87002 12213 ft 337 kts 197°
2026-04-26 00:34 41.10943 -95.87869 12874 ft 342 kts 198°
2026-04-26 00:34 41.08644 -95.88741 13544 ft 347 kts 198°
2026-04-26 00:34 41.06304 -95.89581 14135 ft 351 kts 198°
2026-04-26 00:34 41.03925 -95.90432 14721 ft 355 kts 198°
2026-04-26 00:35 41.01537 -95.91308 15313 ft 359 kts 198°
2026-04-26 00:35 40.99112 -95.92199 15909 ft 363 kts 198°
2026-04-26 00:35 40.96658 -95.93090 16521 ft 367 kts 198°
2026-04-26 00:35 40.94181 -95.93987 17146 ft 371 kts 198°
2026-04-26 00:36 40.91679 -95.94896 17766 ft 376 kts 198°
2026-04-26 00:36 40.89139 -95.95820 18371 ft 380 kts 198°
2026-04-26 00:36 40.86578 -95.96748 18990 ft 383 kts 198°
2026-04-26 00:36 40.83999 -95.97682 19636 ft 386 kts 198°
2026-04-26 00:37 40.81402 -95.98623 20286 ft 389 kts 198°
2026-04-26 00:37 40.78783 -95.99571 20927 ft 392 kts 198°
2026-04-26 00:37 40.76143 -96.00525 21563 ft 395 kts 198°
2026-04-26 00:37 40.73482 -96.01487 22204 ft 398 kts 198°
2026-04-26 00:38 40.70797 -96.02455 22827 ft 402 kts 199°
2026-04-26 00:38 40.68096 -96.03429 23454 ft 405 kts 199°
2026-04-26 00:38 40.65396 -96.04403 23961 ft 408 kts 199°
2026-04-26 00:38 40.62613 -96.05405 24514 ft 411 kts 199°
2026-04-26 00:39 40.59885 -96.06385 25026 ft 414 kts 199°
2026-04-26 00:39 40.57053 -96.07404 25560 ft 417 kts 199°
2026-04-26 00:39 40.54282 -96.08399 26073 ft 420 kts 199°
2026-04-26 00:39 40.51457 -96.09412 26602 ft 423 kts 199°
2026-04-26 00:40 40.48571 -96.10447 27133 ft 426 kts 199°
2026-04-26 00:40 40.45742 -96.11460 27646 ft 429 kts 199°
2026-04-26 00:40 40.42850 -96.12495 28193 ft 432 kts 199°
2026-04-26 00:40 40.39938 -96.13536 28765 ft 435 kts 199°
2026-04-26 00:41 40.37001 -96.14586 29327 ft 439 kts 199°
2026-04-26 00:41 40.34039 -96.15643 29890 ft 443 kts 199°
2026-04-26 00:41 40.31058 -96.16705 30353 ft 446 kts 199°
2026-04-26 00:41 40.28061 -96.17772 30868 ft 448 kts 200°
2026-04-26 00:42 40.25060 -96.18838 31612 ft 444 kts 200°
2026-04-26 00:42 40.22091 -96.19892 32344 ft 441 kts 200°
2026-04-26 00:42 40.19162 -96.21044 32972 ft 437 kts 205°
2026-04-26 00:42 40.16346 -96.22490 33634 ft 434 kts 206°
2026-04-26 00:43 40.13533 -96.23898 34266 ft 432 kts 206°
2026-04-26 00:43 40.10718 -96.25274 34797 ft 432 kts 206°
2026-04-26 00:43 40.07912 -96.26669 35326 ft 431 kts 207°
2026-04-26 00:43 40.05122 -96.28077 35862 ft 431 kts 207°
2026-04-26 00:44 40.02321 -96.29478 36409 ft 430 kts 207°
2026-04-26 00:44 39.99521 -96.30863 36977 ft 429 kts 207°
2026-04-26 00:44 39.96734 -96.32245 37526 ft 429 kts 208°
2026-04-26 00:44 39.93938 -96.33640 37846 ft 434 kts 208°
2026-04-26 00:45 39.91085 -96.35068 37829 ft 445 kts 208°
2026-04-26 00:45 39.88158 -96.36520 37827 ft 456 kts 208°
2026-04-26 00:45 39.82103 -96.39508 37848 ft 473 kts 207°
2026-04-26 00:46 39.75877 -96.42590 37847 ft 484 kts 207°
2026-04-26 00:46 39.69541 -96.45711 37842 ft 488 kts 207°
2026-04-26 00:47 39.63188 -96.48841 37836 ft 488 kts 207°
2026-04-26 00:47 39.56842 -96.51959 37826 ft 487 kts 207°
2026-04-26 00:48 39.50511 -96.55064 37822 ft 486 kts 207°
2026-04-26 00:48 39.44193 -96.58157 37812 ft 485 kts 207°
2026-04-26 00:49 39.37896 -96.61234 37798 ft 484 kts 207°
2026-04-26 00:49 39.31587 -96.64311 37793 ft 484 kts 207°
2026-04-26 00:50 39.25285 -96.67379 37798 ft 485 kts 207°
2026-04-26 00:50 39.18966 -96.70449 37787 ft 486 kts 207°
2026-04-26 00:51 39.12628 -96.73522 37787 ft 487 kts 207°
2026-04-26 00:51 39.06282 -96.76593 37774 ft 488 kts 207°
2026-04-26 00:52 38.99924 -96.79663 37783 ft 488 kts 207°
2026-04-26 00:52 38.93559 -96.82732 37776 ft 489 kts 207°
2026-04-26 00:53 38.87182 -96.85800 37779 ft 489 kts 207°
2026-04-26 00:53 38.80544 -96.88094 37774 ft 504 kts 195°
2026-04-26 00:54 38.73562 -96.89046 37793 ft 504 kts 193°
2026-04-26 00:54 38.66627 -96.90037 37789 ft 505 kts 193°
2026-04-26 00:55 38.59626 -96.90992 37785 ft 506 kts 193°
2026-04-26 00:55 38.52632 -96.91972 37777 ft 506 kts 193°
2026-04-26 00:56 38.45622 -96.92935 37773 ft 507 kts 193°
2026-04-26 00:56 38.38610 -96.93907 37780 ft 507 kts 193°
2026-04-26 00:57 38.31594 -96.94871 37780 ft 507 kts 193°
2026-04-26 00:57 38.24579 -96.95837 37790 ft 507 kts 193°
2026-04-26 00:58 38.17556 -96.96800 37795 ft 508 kts 193°
2026-04-26 00:58 38.10527 -96.97763 37797 ft 508 kts 193°
2026-04-26 00:59 38.03492 -96.98724 37795 ft 509 kts 193°
2026-04-26 00:59 37.96449 -96.99686 37795 ft 510 kts 193°
2026-04-26 01:00 37.89379 -97.00648 37804 ft 511 kts 193°
2026-04-26 01:00 37.82304 -97.01610 37811 ft 512 kts 193°
2026-04-26 01:01 37.75205 -97.02572 37793 ft 513 kts 193°
2026-04-26 01:01 37.68095 -97.03536 37807 ft 515 kts 193°
2026-04-26 01:02 37.60960 -97.04499 37804 ft 517 kts 193°
2026-04-26 01:02 37.53798 -97.05465 37782 ft 518 kts 193°
2026-04-26 01:03 37.46617 -97.06432 37781 ft 520 kts 193°
2026-04-26 01:03 37.39424 -97.07398 37798 ft 521 kts 193°
2026-04-26 01:04 37.32214 -97.08365 37814 ft 522 kts 193°
2026-04-26 01:04 37.25037 -97.09325 37832 ft 522 kts 193°
2026-04-26 01:05 37.17816 -97.10289 37831 ft 522 kts 194°
2026-04-26 01:05 37.10590 -97.11252 37836 ft 522 kts 194°